ATHENA (46275 NORAD) Tracking and Keplerian Element Data

This shows tracking and keplerian element data for the satellite.

Feedback or suggestion? Click here.




ElementValue
Catalog46275
NameATHENA
Epoch Orbit328
Epoch Day268.79453013
Epoch Year2020
RAAN341.5206
Inclination97.4624
Eccentricity0.0001893
Argument of Perigee131.5856
Mean Anonmoly228.5539
Mean Motion15.15966662
Decay Rate3.22E-06
L11 46275U 20061D 20268.79453013 .00000322 00000-0 20211-4 0 9990
L22 46275 97.4624 341.5206 0001893 131.5856 228.5539 15.15966662 3283

Live tracking and technical data element details for ATHENA (NORAD 46275). ATHENA can be tracked NOW for your location showing map with azimuth and elevation plus other details from your city location.

Track the satellite on the map from your city or location and see movement details for azimuth, elevation, latitude, longitude, range, height, and movement on the map or in text.







IsCatalogInMostPopularTable: catalog: 46275, numindb: 6
Update: records affected: 1



GetName: 46275 ATHENA

Hit Count: updated at: Sat, 26 Sep 2020 15:13:06 GMT